Location: Tehachapi Municipal Airport
(35.1300°N, 118.4400°W)
Time: 08:10:21
(UTC-08:00)

BREEZE M DEB (TANK) - Visible Passes

Search period start: 24 November 2014 00:00
Search period end: 04 December 2014 00:00
Orbit: 308 x 12175 km, 49.5° (Epoch: 24 November)

Date Brightness Start Highest point End Pass type
(mag) Time Alt. Az. Time Alt. Az. Time Alt. Az.
24 Nov 5.9 16:29:09 10° WSW 17:20:03 55° NNW 17:30:06 10° NE visible
24 Nov 6.4 21:23:40 10° NW 21:25:30 14° NW 21:25:30 14° NW visible
25 Nov 6.0 20:51:51 10° NW 20:56:26 21° NW 20:56:26 21° NW visible
26 Nov 5.6 20:19:30 10° NW 20:27:20 28° NNW 20:27:20 28° NNW visible
27 Nov 5.2 19:46:30 10° WNW 19:58:13 34° NNW 19:58:13 34° NNW visible
28 Nov 5.0 19:12:39 10° WNW 19:28:39 36° N 19:29:05 36° N visible
29 Nov 5.0 18:37:44 10° WNW 18:57:37 37° N 18:59:55 32° NNE visible
30 Nov 5.1 18:01:29 10° WNW 18:26:28 40° N 18:30:44 25° NE visible
01 Dec 5.4 17:23:42 10° W 17:55:12 43° NNW 18:01:32 18° NE visible
02 Dec 5.6 16:44:19 10° W 17:23:47 46° NNW 17:32:19 11° NE visible
02 Dec 6.5 21:26:56 10° NW 21:27:27 11° NW 21:27:27 11° NW visible
03 Dec 6.1 20:55:08 10° NW 20:58:12 19° NW 20:58:12 19° NW visible
